STARLINK E

Last updated on June 19, 2020, 12:02 a.m. UTC

1 45734U 20038E   20170.75001157  .03198262  94274-2  71007-2 0  9998
2 45734  53.0018 271.8598 0094880  67.8825 135.8403 15.91487934  2138

Satellite is not in orbit.